Overview Statistics Trail Chart Weather Telemetry Raw packets
 

This is the latest recevied weather packets stored in our database for station/object KC1BRV. If no packets are shown the sender has not sent any weather packets the latest 10 day(s).

<< 35 36 37 38 39 40 41 >>
Time Temp. Humidity Pressure Rain* Wind** Luminosity Snow
1788378430 22.22° C 62% 1022.1 hPa 0 mm - 156 W/m² -
1788378125 22.78° C 64% 1022 hPa 0 mm - 151 W/m² -
1788377822 22.78° C 62% 1021.9 hPa 0 mm - 153 W/m² -
1788377517 23.33° C 60% 1022 hPa 0 mm - 137 W/m² -
1788377215 23.33° C 62% 1022.1 hPa 0 mm - 102 W/m² -
1788376914 23.89° C 60% 1022.1 hPa 0 mm - 100 W/m² -
1788376608 23.89° C 62% 1022.2 hPa 0 mm - 110 W/m² -
1788376303 23.33° C 64% 1022 hPa 0 mm - 96 W/m² -
1788375998 23.33° C 62% 1022.2 hPa 0 mm - 96 W/m² -
1788375693 23.33° C 59% 1022 hPa 0 mm - 73 W/m² -
1788375389 23.89° C 59% 1022 hPa 0 mm - 549 W/m² -
1788375085 23.89° C 60% 1022.1 hPa 0 mm - 556 W/m² -
1788374780 23.89° C 61% 1022.1 hPa 0 mm - 575 W/m² -
1788374475 23.89° C 59% 1022.2 hPa 0 mm - 585 W/m² -
1788374172 23.89° C 58% 1022 hPa 0 mm - 611 W/m² -
1788373868 23.89° C 59% 1021.9 hPa 0 mm - 552 W/m² -
1788373564 23.89° C 61% 1022 hPa 0 mm - 585 W/m² -
1788373261 23.33° C 61% 1022.1 hPa 0 mm - 653 W/m² -
1788372956 23.33° C 61% 1022.1 hPa 0 mm - 229 W/m² -
1788372656 23.33° C 61% 1022.2 hPa 0 mm - 562 W/m² -
1788372355 23.89° C 62% 1022 hPa 0 mm - 268 W/m² -
1788372052 23.89° C 62% 1022.1 hPa 0 mm - 430 W/m² -
1788371751 23.89° C 63% 1022.3 hPa 0 mm - 537 W/m² -
1788371447 23.33° C 64% 1022.2 hPa 0 mm - 557 W/m² -
1788371143 23.33° C 64% 1022.1 hPa 0 mm - 406 W/m² -

* Rain latest hour (hover to see other rain measurements)
** Current wind speed in m/s (hover to see current wind gust speed)